DateTimeUTC,F1_A11,F1_S11,BsB_S11,BsG_S11,BsR_S11,BbsB_S11,BbsG_S11,BbsR_S11,BaB_A11,BaG_A11,BaR_A11,Tu_S11,T_S11,Uu_S11,U_S11,P_S11,T1_A11
2021-03-31T19:00:00Z,00000200,21000000,,,,,,,0000.08,0000.00,-000.12,16.9,24.2,,00.0,0654.3,30.9
2021-03-31T19:01:00Z,00000200,21000000,,,,,,,-000.31,-000.17,-000.14,16.9,24.2,,00.0,0654.3,30.9
2021-03-31T19:02:00Z,00000200,21000000,,,,,,,-000.32,0000.01,-000.28,16.8,24.2,,00.0,0654.3,30.9
2021-03-31T19:03:00Z,00000200,61000000,,,,,,,0000.38,0000.26,0000.76,16.8,24.2,,00.0,0654.3,31.0
2021-03-31T19:04:00Z,00000200,41000000,0002.55,0001.49,0000.83,0000.45,0000.24,0000.55,0000.71,0000.21,0000.09,17.0,24.0,,00.0,0655.3,30.9
2021-03-31T19:05:00Z,00000200,01000000,0002.58,0001.54,0001.03,0000.29,0000.33,0000.19,0000.44,0000.89,0000.30,17.0,24.0,,00.0,0655.4,30.9
2021-03-31T19:06:00Z,00000200,01000000,0002.48,0001.96,0001.00,0000.27,0000.34,0000.49,0000.69,0000.58,0000.84,17.0,23.9,,00.0,0655.5,31.0
2021-03-31T19:07:00Z,00000200,01000000,0002.65,0001.64,0000.89,0000.16,-000.12,0000.55,0000.75,0000.23,0000.21,17.0,23.9,,00.0,0655.5,31.0
2021-03-31T19:08:00Z,00000200,01000000,0002.67,0001.62,0000.73,0000.39,0000.51,0000.17,0000.46,0000.86,0000.46,17.0,23.9,,00.0,0655.5,31.0
2021-03-31T19:09:00Z,00000200,01000000,0002.98,0001.65,0000.85,0000.00,0000.21,0000.20,0000.87,0000.69,0000.50,17.0,23.9,,00.0,0655.5,31.0
2021-03-31T19:10:00Z,00000200,01000000,0002.97,0001.77,0000.68,0000.07,0000.42,0000.09,0000.63,0000.38,0000.26,17.0,23.9,,00.0,0655.5,31.0
2021-03-31T19:11:00Z,00000200,01000000,0002.63,0001.74,0001.06,0000.29,0000.30,0000.28,0000.54,0000.69,0000.71,17.0,23.9,,00.0,0655.5,31.0
2021-03-31T19:12:00Z,00000200,01000000,0002.86,0001.84,0001.08,0000.79,0000.27,0000.31,0000.55,0000.29,0000.35,17.0,23.9,,00.0,0655.5,31.0
2021-03-31T19:13:00Z,00000200,01000000,0002.52,0001.30,0001.18,0000.14,0000.35,0000.08,0000.65,0000.74,0000.24,17.0,23.9,,00.0,0655.6,30.9
2021-03-31T19:14:00Z,00000200,01000000,0002.63,0001.59,0000.92,0000.48,0000.29,0000.38,0000.54,0000.55,0000.35,17.0,23.9,,00.0,0655.6,31.0
2021-03-31T19:15:00Z,00000200,01000000,0002.84,0001.75,0001.11,-000.05,0000.35,0000.38,0000.90,0000.57,0000.88,17.0,23.9,,00.0,0655.6,30.9
2021-03-31T19:16:00Z,00000200,01000000,0002.76,0001.82,0000.89,0000.29,0000.51,0000.19,0000.58,0000.66,0000.54,17.0,23.9,,00.0,0655.6,30.9
2021-03-31T19:17:00Z,00000200,01000000,0002.55,0001.79,0001.03,0000.15,0000.50,0000.41,0000.51,0000.57,0000.02,17.0,23.9,,00.0,0655.7,31.0
2021-03-31T19:18:00Z,00000200,01000000,0003.31,0001.69,0001.09,0000.76,0000.30,0000.31,0000.50,0000.55,0000.69,17.0,23.9,,00.0,0655.8,31.0
2021-03-31T19:19:00Z,00000200,01000000,0002.44,0001.55,0001.13,0000.48,0000.41,0000.22,0000.98,0000.61,0000.32,17.0,23.9,,00.0,0655.8,31.0
2021-03-31T19:20:00Z,00000200,01000000,0003.60,0001.89,0001.27,0000.34,0000.21,0000.32,0000.36,0000.50,0000.82,17.0,23.9,,00.0,0655.8,31.0
2021-03-31T19:21:00Z,00000200,01000000,0003.39,0001.21,0001.01,-000.12,0000.10,0000.39,0000.95,0000.92,0000.32,17.0,23.9,,00.0,0655.8,30.9
2021-03-31T19:22:00Z,00000200,01000000,0003.00,0001.58,0001.08,0000.54,0000.17,0000.51,0000.58,0000.63,0000.61,17.0,23.8,,00.0,0655.8,30.9
2021-03-31T19:23:00Z,00000200,01000000,0002.17,0001.59,0000.99,0000.71,0000.14,0000.18,0000.82,0000.59,0000.20,17.0,23.8,,00.0,0655.8,31.0
2021-03-31T19:24:00Z,00000200,01000000,0002.68,0001.72,0000.80,0000.39,0000.33,0000.26,0000.86,0000.61,0000.63,17.0,23.8,,00.0,0655.8,31.0
2021-03-31T19:25:00Z,00000200,01000000,0002.79,0001.87,0000.74,0000.96,0000.48,0000.24,0000.52,0000.67,0000.77,17.0,23.8,,00.0,0655.8,31.0
2021-03-31T19:26:00Z,00000200,01000000,0002.57,0002.06,0000.74,0000.40,0000.50,0000.23,0000.89,0000.71,0000.31,17.0,23.8,,00.0,0655.8,31.0
2021-03-31T19:27:00Z,00000200,01000000,0002.28,0001.59,0001.02,0000.34,0000.69,0000.12,0000.21,0000.64,0000.55,17.1,23.9,,00.0,0655.8,31.0
2021-03-31T19:28:00Z,00000200,01000000,0002.49,0001.72,0001.27,0000.15,0000.33,0000.45,0000.67,0000.55,0000.24,17.2,23.9,,00.0,0655.8,31.0
2021-03-31T19:29:00Z,00000200,01000000,0002.41,0001.35,0000.78,0000.49,0000.26,0000.15,0000.13,0000.50,0000.17,17.2,24.0,,00.0,0655.8,31.0
2021-03-31T19:30:00Z,00000200,01000000,0002.70,0001.62,0001.05,0000.28,0000.22,0000.18,0000.91,0000.34,0000.47,17.2,24.0,,00.0,0655.8,31.0
2021-03-31T19:31:00Z,00000200,01000000,0002.85,0001.75,0000.95,0000.74,0000.27,0000.28,0000.23,0000.13,0000.40,17.2,24.0,,00.0,0655.9,31.0
2021-03-31T19:32:00Z,00000200,01000000,0002.57,0001.91,0000.82,-000.03,0000.33,0000.47,0001.00,0000.41,0000.44,17.2,24.0,,00.0,0655.9,31.0
2021-03-31T19:33:00Z,00000200,01000000,0002.28,0001.63,0000.91,-000.02,0000.36,0000.28,0000.24,0000.77,0000.23,17.2,24.0,,00.0,0655.9,31.0
2021-03-31T19:34:00Z,00000200,01000000,0002.58,0001.82,0000.93,0000.59,0000.40,0000.57,0000.46,0000.51,0000.68,17.2,24.0,,00.0,0655.9,31.0
2021-03-31T19:35:00Z,00000200,01000000,0002.53,0001.63,0000.66,0000.37,0000.37,-000.03,0000.27,0000.37,0000.13,17.2,24.0,,00.0,0655.9,31.0
2021-03-31T19:36:00Z,00000200,01000000,0002.57,0001.85,0001.24,0000.36,0000.35,0000.11,0000.90,0000.32,0000.44,17.2,24.0,,00.0,0655.9,31.0
2021-03-31T19:37:00Z,00000200,01000000,0002.00,0001.57,0001.06,0000.05,0000.51,0000.36,0000.61,0000.85,0000.13,17.2,24.0,,00.0,0655.9,31.0
2021-03-31T19:38:00Z,00000200,01000000,0002.57,0001.78,0001.26,0000.43,0000.15,0000.34,0000.41,0000.53,0000.87,17.2,24.0,,00.0,0655.9,31.0
2021-03-31T19:39:00Z,00000200,01000000,0002.31,0001.81,0001.14,-000.01,0000.45,0000.47,0000.45,0000.01,-000.13,17.2,24.0,,00.0,0655.9,31.0
2021-03-31T19:40:00Z,00000200,01000000,0002.39,0001.62,0000.73,0000.54,0000.08,0000.13,0000.32,0000.67,0000.50,17.2,24.0,,00.0,0655.9,31.0
2021-03-31T19:41:00Z,00000200,01000000,0003.12,0002.17,0001.37,0000.33,0000.26,0000.30,0000.72,0000.39,0000.48,17.2,24.0,,00.0,0655.9,31.0
2021-03-31T19:42:00Z,00000200,01000000,0002.48,0001.84,0000.93,0000.95,0000.38,0000.10,0000.29,0000.38,0000.29,17.2,24.0,,00.0,0656.0,31.0
2021-03-31T19:43:00Z,00000200,01000000,0002.77,0001.65,0001.17,0000.51,0000.61,0000.22,0000.36,0000.29,0000.16,17.2,24.0,,00.0,0656.0,31.0
2021-03-31T19:44:00Z,00000200,01000000,0002.85,0001.73,0001.16,0000.34,0000.20,0000.32,0000.92,0000.58,0000.68,17.2,24.0,,00.0,0656.0,31.0
2021-03-31T19:45:00Z,00000200,01000000,0002.01,0001.90,0000.91,0000.20,0000.36,0000.24,0000.36,0000.53,0000.27,17.2,24.0,,00.0,0656.0,31.0
2021-03-31T19:46:00Z,00000200,01000000,0002.94,0001.78,0001.14,0000.14,0000.44,0000.39,0000.56,0000.83,0000.22,17.2,24.0,,00.0,0656.0,31.0
2021-03-31T19:47:00Z,00000200,01000000,0002.80,0001.40,0001.06,0000.13,0000.49,0000.22,0000.41,0000.13,0000.69,17.2,24.0,,00.0,0656.0,31.0
2021-03-31T19:48:00Z,00000200,01000000,0003.14,0001.70,0001.23,-000.45,0000.37,0000.38,0000.66,0000.31,0000.09,17.2,24.0,,00.0,0656.0,31.0
2021-03-31T19:49:00Z,00000200,01000000,0003.30,0001.38,0000.72,0000.63,0000.39,0000.42,0000.35,0000.71,0000.27,17.1,24.0,,00.0,0656.0,30.9
2021-03-31T19:50:00Z,00000200,01000000,0002.53,0001.34,0001.01,0000.45,0000.37,0000.24,0000.58,0000.35,0000.45,17.2,24.0,,00.0,0656.0,31.0
2021-03-31T19:51:00Z,00000200,01000000,0002.26,0001.90,0000.57,0000.66,0000.24,0000.13,0000.19,0000.41,0000.57,17.1,24.0,,00.0,0656.0,31.0
2021-03-31T19:52:00Z,00000200,01000000,0002.66,0001.85,0000.99,0000.12,0000.31,0000.12,0000.97,0000.53,0000.11,17.1,24.0,,00.0,0656.0,31.0
2021-03-31T19:53:00Z,00000200,01000000,0002.19,0001.88,0000.67,0000.63,0000.30,0000.07,0000.46,0000.30,0000.58,17.1,24.0,,00.0,0656.0,31.0
2021-03-31T19:54:00Z,00000200,01000000,0002.51,0001.63,0000.89,0000.01,0000.27,0000.21,0000.52,0001.18,0000.75,17.1,24.0,,00.0,0656.0,31.0
2021-03-31T19:55:00Z,00000200,01000000,0002.46,0001.72,0000.89,0000.49,0000.24,0000.09,0000.76,0000.35,0000.25,17.1,24.0,,00.0,0655.9,31.0
2021-03-31T19:56:00Z,00000200,01000000,0002.79,0001.32,0000.97,0000.74,0000.37,0000.27,0000.55,0000.41,0000.55,17.2,24.0,,00.0,0655.9,31.0
2021-03-31T19:57:00Z,00000200,41000000,,,,,,,0001.56,0001.72,0001.15,17.3,24.1,,00.0,0656.0,31.0
2021-03-31T19:58:00Z,00000200,61000000,,,,,,,-000.36,-000.89,-000.79,17.0,24.2,,00.0,0655.0,30.9
2021-03-31T19:59:00Z,00000200,21000000,,,,,,,-000.59,-000.15,-000.04,17.0,24.3,,00.0,0655.0,31.0
